Маршрут поезда 376Я МОСКВА ВОРКУТА

По правилам РЖД в расписании и билетах для станций внутри России указано московское время.
Для станций вне России указано местное время.

В столбце "Время в пути" указано время до следующей станции.

Основной маршрут
Станция Прибытие Прибыт. Стоянка Отправление Отправл. Время в пути Время
в пути.
МОСКВА ЯРОСЛАВСКАЯ 12:50
АЛЕКСАНДРОВ 1 14:41 1 м 14:42 1 ч 51 м
РОСТОВ-ЯРОСЛАВСКИЙ 16:05 2 м 16:07 3 ч 14 м
ЯРОСЛАВЛЬ-ГЛАВНЫЙ 16:58 58 м 17:56 4 ч 5 м
ДАНИЛОВ 18:55 33 м 19:28 5 ч 4 м
МАКАРОВО 19:48 1 м 19:49 5 ч 24 м
ПРЕЧИСТОЕ 20:09 1 м 20:10 5 ч 44 м
СКАЛИНО 20:26 1 м 20:27 6 ч
БАКЛАНКА 20:53 1 м 20:54 6 ч 26 м
ГРЯЗОВЕЦ 21:11 2 м 21:13 6 ч 43 м
ВОЛОГДА 1 22:01 25 м 22:26 7 ч 31 м
СУХОНА 22:57 2 м 22:59 8 ч 2 м
СЕМИГОРОДНЯЯ 23:28 1 м 23:29 8 ч 31 м
ХАРОВСКАЯ 23:43 2 м 23:45 8 ч 45 м
ВОЖЕГА 00:29 3 м 00:32 9 ч 29 м
ЯВЕНГА 00:47 2 м 00:49 9 ч 44 м
ЕРЦЕВО 01:07 2 м 01:09 10 ч 2 м
КОНОША 1 01:28 30 м 01:58 10 ч 21 м
ВЕРЕСОВО 02:18 1 м 02:19 10 ч 41 м
ПОДЮГА 02:54 1 м 02:55 11 ч 16 м
ЮРА 03:18 1 м 03:19 11 ч 39 м
УСТЬ-ШОНОША 03:33 1 м 03:34 11 ч 53 м
ВЕРХНЯЯ СИНЕГА 04:01 1 м 04:02 12 ч 20 м
ВЕЛЬСК 04:24 8 м 04:32 12 ч 42 м
КУЛОЙ 04:56 3 м 04:59 13 ч 6 м
КОСТЫЛЕВО 05:37 2 м 05:39 13 ч 44 м
ИЛЕЗА 06:16 1 м 06:17 14 ч 21 м
ЛОЙГА 06:56 1 м 06:57 15 ч
КИЗЕМА 07:12 5 м 07:17 15 ч 15 м
ЛОМОВАТКА 07:59 1 м 08:00 15 ч 57 м
УДИМА 08:28 1 м 08:29 16 ч 25 м
ЯДРИХА 08:55 6 м 09:01 16 ч 51 м
КОТЛАС ЮЖНЫЙ 10:00 1 ч 6 м 11:06 17 ч 50 м
КОТЛАС-УЗЛОВОЙ 11:21 3 м 11:24 18 ч 5 м
СОЛЬВЫЧЕГОДСК 11:41 2 м 11:43 18 ч 22 м
НИЗОВКА 12:00 2 м 12:02 18 ч 39 м
ВИЛЕДЬ 12:33 2 м 12:35 19 ч 10 м
УРДОМА 13:34 3 м 13:37 20 ч 9 м
ШИЕС 14:05 2 м 14:07 20 ч 37 м
МАДМАС 14:26 5 м 14:31 20 ч 56 м
МЕЖЕГ 14:44 4 м 14:48 21 ч 9 м
МИКУНЬ 15:26 19 м 15:45 21 ч 47 м
КНЯЖПОГОСТ 16:39 5 м 16:44 22 ч 41 м
ТРАКТ 17:08 1 м 17:09 23 ч 5 м
ВЕСЛЯНА 17:23 5 м 17:28 23 ч 19 м
СИНДОР 17:51 5 м 17:56 23 ч 42 м
ИОССЕР 18:18 1 м 18:19 1 д 4 м
КРЕПЕЖНАЯ 18:30 1 м 18:31 1 д 15 м
ЧИНЬЯВОРЫК 19:01 5 м 19:06 1 д 45 м
ЮКАРКА 19:19 1 м 19:20 1 д 58 м
ТОБЫСЬ 19:31 1 м 19:32 1 д 1 ч 9 м
ЯРЕГА 20:05 2 м 20:07 1 д 1 ч 42 м
УХТА 20:27 16 м 20:43 1 д 2 ч 2 м
СОСНОГОРСК 21:07 24 м 21:31 1 д 2 ч 26 м
КЕРКИ 22:01 1 м 22:02 1 д 2 ч 56 м
ВИС 22:33 1 м 22:34 1 д 3 ч 27 м
МАЛАЯ ПЕРА 23:08 4 м 23:12 1 д 4 ч 1 м
ИРАЕЛЬ 23:42 5 м 23:47 1 д 4 ч 31 м
ЗЕЛЕНОБОРСК 00:01 1 м 00:02 1 д 4 ч 45 м
РЫБНИЦА 00:14 1 м 00:15 1 д 4 ч 57 м
ТАЛЫЙ 00:30 1 м 00:31 1 д 5 ч 12 м
КАДЖЕРОМ 00:44 1 м 00:45 1 д 5 ч 25 м
ЧИКШИНО 01:17 4 м 01:21 1 д 5 ч 57 м
КОЖВА 1 01:55 4 м 01:59 1 д 6 ч 31 м
ПЕЧОРА 02:17 25 м 02:42 1 д 6 ч 49 м
СЫНЯ 03:35 1 м 03:36 1 д 7 ч 42 м
ЯНЬЮ 04:01 4 м 04:05 1 д 8 ч 7 м
КОСЬЮ 04:35 1 м 04:36 1 д 8 ч 37 м
КОЖЫМ 05:08 1 м 05:09 1 д 9 ч 9 м
ИНТА 1 05:47 24 м 06:11 1 д 9 ч 47 м
НЮР 06:27 1 м 06:28 1 д 10 ч 3 м
БАЙДУК 06:42 1 м 06:43 1 д 10 ч 17 м
КОЧМЕС 06:54 1 м 06:55 1 д 10 ч 28 м
ТУРУН 07:06 1 м 07:07 1 д 10 ч 39 м
ОШПЕР 07:20 1 м 07:21 1 д 10 ч 52 м
ПЕТРУНЬ 07:35 1 м 07:36 1 д 11 ч 6 м
БУГРЫ-ПОЛЯРНЫЕ 07:53 1 м 07:54 1 д 11 ч 23 м
УСА 08:18 2 м 08:20 1 д 11 ч 47 м
ПОСТ АБЕЗЬ 08:27 4 м 08:31 1 д 11 ч 54 м
МАРКОВ 08:43 4 м 08:47 1 д 12 ч 6 м
АМШОР 09:12 1 м 09:13 1 д 12 ч 31 м
СИВАЯ МАСКА 09:26 2 м 09:28 1 д 12 ч 44 м
ПЕРНАШОР 09:43 1 м 09:44 1 д 12 ч 59 м
ШОР 09:59 1 м 10:00 1 д 13 ч 14 м
ПЫШОР 10:14 1 м 10:15 1 д 13 ч 28 м
СЕЙДА 10:41 5 м 10:46 1 д 13 ч 54 м
ЧУМ 10:57 1 м 10:58 1 д 14 ч 5 м
КЫКШОР 11:15 1 м 11:16 1 д 14 ч 22 м
ПЕСЕЦ 11:35 1 м 11:36 1 д 14 ч 41 м
ХАНОВЕЙ 11:52 1 м 11:53 1 д 14 ч 57 м
ЮНЬ-ЯГА 12:15 6 м 12:21 1 д 15 ч 19 м
ВОРКУТА 12:39 1 д 15 ч 37 м
Беспересадочные вагоны
Станция Прибытие Прибыт. Стоянка Отправление Отправл. Время в пути Время
в пути.
ВОРКУТА 12:39 1 ч 21 м 14:00
ЮНЬ-ЯГА 14:15 7 м 14:22 15 м
ХАНОВЕЙ 14:42 2 м 14:44 35 м
ПЕСЕЦ 14:59 2 м 15:01 50 м
КЫКШОР 15:20 2 м 15:22 1 ч 9 м
ЧУМ 15:40 2 м 15:42 1 ч 27 м
СЕЙДА 15:55 1 ч 31 м 17:26 1 ч 40 м
ЧУМ 17:40 27 м 18:07 1 ч 54 м
ПЛАТФОРМА 9 КМ 18:25 1 м 18:26 2 ч 12 м
ПЛАТФОРМА 17 КМ 18:38 7 м 18:45 2 ч 24 м
ПЛАТФОРМА 24 КМ 18:58 7 м 19:05 2 ч 37 м
НИКИТА 19:28 7 м 19:35 3 ч
ПЛАТФОРМА 42 КМ 19:57 10 м 20:07 3 ч 22 м
ПЛАТФОРМА 44 КМ 20:12 5 м 20:17 3 ч 27 м
ЕЛЕЦКАЯ 20:29 43 м 21:12 3 ч 39 м
ПЛАТФОРМА 61 КМ 21:31 5 м 21:36 3 ч 58 м
ХОРОТА 21:54 10 м 22:04 4 ч 16 м
ПОЛЯРНЫЙ УРАЛ 22:37 10 м 22:47 4 ч 49 м
ПЛАТФОРМА 110 КМ 23:05 5 м 23:10 5 ч 7 м
СОБЬ 23:22 20 м 23:42 5 ч 19 м
ПЛАТФОРМА 129 КМ 23:58 5 м 00:03 5 ч 35 м
ПЛАТФОРМА 134 КМ 00:12 10 м 00:22 5 ч 44 м
ПЛАТФОРМА 141 КМ 00:33 5 м 00:38 5 ч 55 м
ХАРП СЕВЕРНОЕ СИЯНИЕ 00:57 20 м 01:17 6 ч 14 м
ПЛАТФОРМА 165 КМ 01:38 5 м 01:43 6 ч 35 м
ПЛАТФОРМА 177 КМ 01:58 5 м 02:03 6 ч 50 м
ОБСКАЯ 02:11 12 м 02:23 6 ч 58 м
ЛАБЫТНАНГИ 02:50 7 ч 25 м
Купить билет на поезд
Отзывы о поезде № 376Я
Дата поездки
2.4
Очень грязный вагон. Туалеты в ужасном состоянии
Дата поездки
7.4
Ехали до Ярославля в сидячем вагоне, не Сапсан, но вполне прилично и удобно! Обслуживания, как такового не было, поэтому ставлю минус, просто выдали стаканы и чайные пакетики, наливали и приносили чай мы сами. Зато стоимость билетов за 4 часа в пути всего 600 р.
Дата поездки
1
Очень грязно в поезде со станции выезда. Очень. Пыльно. Грязь не убирали лет десять. Белье не влажное. Оно было мокрым. Поезд отвратительный.
Дата поездки
5.4
Вагон очень старый. Мебель и фурнитура в плохом состоянии...
Дата поездки
2
Ужасный , грязный вагон...очень жарко...поезд опоздал на час....
Дата поездки
3
Температура в вагоне на световом табло +30,кондиционер не включают почему???????
Дата поездки
3.2
Неужели РЖД настолько нищие, что до сих пор пускает в летний период эти старые вагоны, как консервные банки, в которых люди просто задыхаются от духоты. Персонал может превзойти себя, обслуживая пассажиров, но это не изменит сттуацию. Едут в отпуска, с маленькими детьми, пожилые люди.... Просто позор для России. Да и разница в цене не очевидна. Совершенствуйтесь уже!
Дата поездки
3.8
СПАСИБО ВСЁ ХОРОШО
Дата поездки
7
Всё понравилось,ехал в 11 вагоне,проводник Лариса приветливая и любящая свою работу,в вагоне всегда чисто и свежо,что очень не хватает на некоторых направлениях.
Дата поездки
10
Спасибо, все было замечательно

Расписание поезда 376Я

Время отправления поезда 376Я отходит из г. МОСКВА в 12:50.

Время прибытия поезда в ВОРКУТА: 12:39. Поезд следует в пути: 1 д 23 ч 49 м.

90 остановок делает поезд 376Я, следуя по маршруту МОСКВА - ВОРКУТА.

1 ч 6 м - наиболее продолжительная стоянка поезда по маршруту.

Ж/д билеты

Минимальную стоимость билета на поезд 376Я, следующему по маршруту МОСКВА - ВОРКУТА можете узнать в расписании поездов МОСКВА - ВОРКУТА.


Обращайте внимание на сезонные коэффициенты, возможно купить жд билеты со скидкой до 50%. Можно воспользоваться услугой заказа электронного ж/д билета.

6 причин купить ЖД билеты у нас

  • Покупка ж/д билета займет не больше 3 минут.
  • Возможность купить билет на поезд РЖД сразу туда и обратно.
  • Удобный выбор места на схеме.
  • Онлайн возврат денежных средств.
  • Множество способов оплаты.
  • Поддержка пользователей 24/7.